SL-16 DEB, 22453

Orbit data source: Space-Track

SL-16 DEB, 22453 is space debris in LEO originally from a launch on Fri, 25 Dec 1992 UTC launched from the Tyuratam Missile And Space Complex (TTMTR). Debris objects in space refer to the collection of defunct objects orbiting the Earth. Examples of debris include non-operational satellites, rocket bodies, and fragments generated from explosions, collisions, or faulty payload assembly.

Loading next visibility...
Identifier
22453, 1992-093ES
Orbit
LEO
Country
Flag of CISCIS
Related business
Manufacturer
Unknown
Mission
Spacecraft
Bus & Motor
Unknown
Mass
Unknown
Launch date (UTC)
1992-12-25 (33 years ago)
Launch vehicle
Unknown
Launch site
Tyuratam Missile And Space Complex (TTMTR)
Object type
Payload
Rocket body
Debris
Shape & HBR
Unknown shape, 0.1 m
Radar Cross Section
Small (<0.1 m²)

Expand to show TLE details & history
Last TLE update: 2 days ago

TLE from 2 days ago
0 SL-16 DEB
1 22453U 92093ES  26131.23011600  .00000343  00000-0  28635-3 0  9992
2 22453  70.8042 210.2183 0166404 141.2857 250.8865 13.89106954682001
Epoch: 2026-05-11T05:31Z
TLE epoch observation values (Epoch: 2026-05-11T05:31:22.022Z)
Latitude
28.58595°
Longitude
-90.76693°
Altitude
976.372 km
Speed
7.345 km/s
True Right ascension
14h 44m 23s
True Declination
28° 26' 46"
Sunlit
Object was in full shadow at epoch
Visualization orbit readout
Latitude
Unknown
Longitude
Unknown
Altitude
Unknown
Speed
Unknown
Apparent Right ascension
Unknown
Apparent Declination
Unknown
Sunlit
N/A
Visualization observer readout
Local Sidereal Time
23:50:14
Azimuth
Unknown
Elevation
Unknown
Doppler factor
Unknown
Orbital elements
Apogee altitude
1,051.337 km
Perigee altitude
808.125 km
Semi-major axis
7,307.868 km
Eccentricity
0.01664
Inclination
70.8042°
RAAN
210.2183°
Arg. of periapsis
141.2857°
True anomaly
249.09725°
Mean anomaly
250.8865°
Eccentric anomaly
249.99063°
Mean motion
3.47422 °/min
Orbital period
103.62 mins
BSTAR
0.00028635
Loading maneuver chart data...
Computing Atmospheric mass density...
Loading historical data...
Loading historical data...
Loading historical data...
Loading historical data...
Loading historical data...
Loading historical data...
Loading historical data...

Documentation

Showing up to 5 results
|